Location: Estes Park
(40.3770°N, 105.5210°W)
Time: 18:22:36
(UTC-07:00)

OTV 5 (USA 277) - Pass Details

Date: 16 October 2017
Orbit: 404 x 417 km, 43.0° (Epoch: 07 September)

Event Time Altitude Azimuth Distance (km) Brightness Sun altitude
Rises 20:37:03 0° 286° (WNW) 2,350 ? -26.8°
Reaches altitude 10° 20:39:10 10° 288° (WNW) 1,486 ? -27.2°
Enters shadow 20:40:31 22° 291° (WNW) 958 ? -27.4°
